Lid_Strength_Index
0 2 6 7 10 12 15 14 11 11 10 8 7 8 9 9 10 12 4 1 0 0 -0 -1 -1 -2 -1 -1 -2 -2 -2 -2 -2 -2 -2 -2 -2 -2 -2 -2 -2 -2 -2 -2 -2 -2 -2 -2 -2
2 3 6 10 12 15 14 13 11 10 8 6 7 8 9 11 6 5 3 1 -0 -0 -0 -0 -1 -2 -1 -2 -2 -2 -2 -2 -2 -2 -2 -2 -2 -2 -2 -2 -2 -2 -2 -2 -2 -2 -2 -2 -2
3 6 9 12 14 15 14 11 10 9 7 7 9 7 9 9 6 4 3 0 -0 0 -0 -0 -1 -2 -1 -2 -2 -2 -2 -2 -2 -1 -2 -2 -2 -2 -2 -2 -2 -2 -2 -2 -2 -2 -2 -2 -2
5 7 10 13 15 13 11 10 9 9 8 7 7 10 7 4 4 3 1 0 0 -0 0 -0 -1 -2 -1 -2 -2 -2 -2 -2 -2 -1 -2 -2 -2 -2 -2 -2 -2 -2 -2 -2 -2 -2 -2 -2 -1
6 8 13 14 15 12 10 8 8 9 9 8 8 11 10 5 2 1 1 0 0 0 0 -0 -1 -1 -2 -1 -2 -2 -2 -1 -2 -3 -2 -2 -2 -2 -2 -2 -1 -1 -1 -1 -1 -1 -2 -2 -1
8 9 13 15 14 12 10 8 9 9 9 8 9 9 9 4 3 2 1 1 0 0 0 0 1 -0 -1 -2 -2 -2 -2 -2 -2 -3 -2 -2 -2 -2 -2 -2 -1 -1 -1 -1 -1 -1 -1 -1 -1
9 11 14 14 14 12 11 9 10 9 9 9 6 10 8 6 3 2 2 1 1 0 0 0 0 0 0 -1 -1 -1 -2 -2 -2 -2 -2 -2 -2 -2 -2 -2 -2 -1 -1 -1 -1 -1 -1 -1 -1
9 10 13 13 14 13 11 10 10 10 10 6 5 9 9 5 3 3 2 2 2 1 1 -0 0 0 0 0 1 -0 -1 -1 -1 -1 -1 -0 -1 -1 -1 -1 -2 -2 -1 -1 -1 -1 -1 -1 -0
8 12 13 12 12 12 10 11 10 8 8 7 7 7 6 4 4 4 3 2 1 1 1 0 0 1 1 0 1 1 0 -0 -0 -0 0 1 2 1 1 0 -1 -2 -2 -1 -1 -1 -0 -0 1
10 14 12 10 11 11 10 10 10 9 8 9 8 6 4 4 5 4 4 3 3 2 2 1 1 0 1 -0 1 1 0 1 1 1 1 2 2 2 1 2 1 -1 -1 -2 -2 -1 -1 1 4
10 13 11 10 9 9 10 11 9 10 11 9 8 6 4 5 5 5 5 4 2 2 2 1 1 1 0 -0 1 1 1 1 1 1 1 2 2 2 2 3 3 3 2 1 1 1 1 2 3
11 9 10 9 9 9 10 10 11 10 10 9 7 5 4 5 4 4 5 5 4 4 3 2 2 1 1 0 0 1 1 2 2 1 1 2 3 3 3 4 3 3 3 3 3 3 2 2 2
11 11 10 9 9 9 9 10 10 9 9 6 6 4 5 4 4 4 4 4 5 4 3 3 2 1 1 1 1 1 0 0 2 2 2 2 3 3 3 3 3 3 3 3 3 4 4 4 3
10 11 11 10 10 9 10 10 9 8 8 7 5 5 5 4 4 4 4 4 4 4 3 3 2 1 1 1 1 1 -0 1 1 2 2 3 3 3 3 3 3 4 4 3 4 4 5 6 6
9 10 10 10 10 10 8 11 10 8 9 8 6 6 5 4 4 4 3 3 3 3 4 4 3 2 2 1 0 1 1 1 1 1 3 3 4 5 5 5 5 4 4 3 4 4 5 5 6
11 11 14 11 9 9 9 14 11 8 8 8 8 7 5 5 4 3 3 3 3 3 4 4 3 3 2 1 1 0 1 1 1 1 1 2 3 4 5 5 5 5 5 5 5 5 6 6 6
13 17 15 13 9 10 10 13 10 9 8 8 8 8 7 7 6 4 3 3 3 3 3 4 3 3 3 2 1 1 0 1 1 1 1 2 2 2 3 4 4 5 5 6 6 6 6 7 7
16 16 14 15 13 11 12 11 10 9 10 9 9 9 9 9 8 7 5 2 2 3 2 3 3 3 3 3 2 2 2 1 1 1 1 2 2 2 3 3 4 5 5 5 6 6 7 6 6
14 15 16 15 12 13 13 13 11 10 10 10 10 10 10 10 8 8 8 6 4 3 3 3 3 3 3 4 4 4 3 2 2 1 1 1 2 2 2 2 3 4 4 4 5 6 7 6 7
13 14 16 14 13 14 14 14 13 12 12 10 9 10 10 10 9 8 8 8 7 5 2 3 3 4 3 3 4 4 4 4 2 2 2 1 1 2 2 2 3 4 4 4 5 6 6 7 7
13 14 15 15 13 14 15 15 14 12 12 11 11 10 10 9 8 8 9 9 8 7 6 4 3 3 3 3 5 5 5 5 4 4 3 2 2 2 2 2 2 3 4 4 5 5 5 5 7
15 12 12 12 14 17 15 20 17 15 14 13 11 11 10 9 8 8 9 9 9 8 8 5 3 3 3 3 4 5 4 5 5 4 4 3 3 3 3 2 3 3 3 4 3 4 4 5 5
13 10 11 12 14 16 17 18 18 16 16 15 13 11 10 8 9 8 8 8 8 8 8 7 5 2 3 3 3 4 4 4 4 5 5 4 4 4 3 3 3 3 3 3 3 4 4 3 4
9 11 11 12 14 20 16 17 21 17 14 13 12 12 10 10 10 9 8 8 7 7 6 5 5 3 2 3 3 4 4 4 4 5 5 5 4 4 4 3 3 3 3 3 3 2 2 2 2
10 13 19 20 20 20 19 18 17 16 13 12 11 11 11 11 10 11 9 8 8 8 8 7 6 6 3 3 3 3 4 4 4 4 4 5 4 3 3 2 3 2 2 2 2 2 2 1 2
12 13 17 22 21 20 17 19 18 14 12 11 11 11 11 11 10 9 9 9 9 9 9 9 8 9 8 8 9 8 8 8 8 7 7 7 7 6 5 6 4 3 2 2 1 1 1 1 2
13 15 12 16 23 21 18 17 15 14 14 12 12 12 11 10 10 9 9 10 10 10 9 9 9 9 9 9 9 9 9 9 9 9 8 8 8 7 7 7 6 6 5 3 2 2 1 1 1
11 10 16 16 22 25 20 19 18 16 13 12 12 11 11 10 11 10 10 10 10 10 10 10 9 9 9 9 10 10 10 9 9 9 9 9 9 9 9 8 8 7 7 6 5 4 3 2 1
13 14 13 13 16 21 23 21 16 14 13 13 12 12 11 11 11 11 11 10 10 10 10 10 10 10 10 10 10 10 10 10 10 10 10 10 10 10 10 9 9 9 8 8 7 7 5 4 3
10 12 12 16 17 16 18 18 15 15 14 13 12 12 11 10 10 11 10 10 11 11 11 10 10 9 9 10 11 11 11 11 11 11 11 11 11 10 10 10 10 10 9 9 8 8 7 6 5